ONEWEB-0031, 45431

Orbit data source: Space-Track

ONEWEB-0031, 45431 is a payload satellite owned by One Web (UK) in LEO that was launched on Sat, 21 Mar 2020 UTC via a SOYUZ-2-1B launch vehicle from the Tyuratam Missile And Space Complex (TTMTR). Payload-class satellites include a variety of spacecraft equipped with specific instruments for various scientific and technological missions. These include communications satellites like Starlink; space stations such as the ISS; scientific satellites like the Hubble; Earth observation satellites from companies like Planet Labs, Umbra, and HawkEye 360; GPS; miniature CubeSats for education and research; and military/defense satellites.

Loading next visibility...
Identifier
45431, 2020-020H
Orbit
LEO
Country
Flag of UKUK
Related business
Manufacturer
One Web
Mission
Operational Commercial Communications
Bus & Motor
ARROW, Unknown motor
Mass
148 kg wet, ~140 kg dry
Launch date (UTC)
2020-03-21 (5 years ago)
Launch vehicle
SOYUZ-2-1B
Launch site
Tyuratam Missile And Space Complex (TTMTR)
Object type
Payload
Rocket body
Debris
Shape & HBR
Trap Box + 2 Pan, 2.5 m
Radar Cross Section
2.957 m², Medium (>0.1 m² and < 1m²)

Expand to show TLE details & history
Last TLE update: 14 hours ago

TLE from 14 hours ago
0 ONEWEB-0031
1 45431U 20020H   25258.74790187 -.00000473  00000-0 -13707-2 0  9992
2 45431  87.8777  75.7582 0001542  97.0968 263.0335 13.11411618266685
Epoch: 2025-09-15T17:56Z
TLE epoch observation values (Epoch: 2025-09-15T17:56:58.721Z)
Latitude
-0.00006°
Longitude
171.56542°
Altitude
1,220.735 km
Speed
7.244 km/s
True Right ascension
05h 03m 01s
True Declination
0° 00' 00"
Sunlit
Object was in daylight at epoch
Visualization orbit readout
Latitude
Unknown
Longitude
Unknown
Altitude
Unknown
Speed
Unknown
Apparent Right ascension
Unknown
Apparent Declination
Unknown
Sunlit
N/A
Visualization observer readout
Local Sidereal Time
00:16:26
Azimuth
Unknown
Elevation
Unknown
Doppler factor
Unknown
Orbital elements
Apogee altitude
1,215.992 km
Perigee altitude
1,213.651 km
Semi-major axis
7,592.959 km
Eccentricity
0.00015
Inclination
87.8777°
RAAN
75.7582°
Arg. of periapsis
97.0968°
True anomaly
263.01596°
Mean anomaly
263.0335°
Eccentric anomaly
263.02473°
Mean motion
3.2804 °/min
Orbital period
109.74 mins
BSTAR
-0.0013707
Loading maneuver chart data...
Computing Atmospheric mass density...
Loading historical data...
Loading historical data...
Loading historical data...
Loading historical data...
Loading historical data...
Loading historical data...
Loading historical data...

Documentation

Showing up to 5 results
|